TimeCDT,TemperatureF,Dew PointF,Humidity,Sea Level PressureIn,VisibilityMPH,Wind Direction,Wind SpeedMPH,Gust SpeedMPH,PrecipitationIn,Events,Conditions,WindDirDegrees,DateUTC
12:51 AM,80.1,71.1,74,29.95,10.0,ESE,5.8,-,N/A,,Scattered Clouds,120,2013-09-07 05:51:00
1:51 AM,80.1,72.0,76,29.96,10.0,ESE,4.6,-,N/A,,Clear,110,2013-09-07 06:51:00
2:51 AM,78.1,72.0,81,29.94,10.0,ESE,4.6,-,N/A,,Partly Cloudy,120,2013-09-07 07:51:00
3:51 AM,79.0,73.0,82,29.94,10.0,ESE,5.8,-,N/A,,Mostly Cloudy,120,2013-09-07 08:51:00
4:13 AM,78.8,73.4,83,30.00,10.0,ESE,4.6,-,N/A,,Mostly Cloudy,120,2013-09-07 09:13:00
4:51 AM,77.0,73.0,88,29.95,10.0,SE,6.9,-,N/A,,Mostly Cloudy,130,2013-09-07 09:51:00
5:51 AM,77.0,73.0,88,29.95,10.0,Calm,Calm,-,N/A,,Scattered Clouds,0,2013-09-07 10:51:00
6:51 AM,78.1,73.0,84,29.96,10.0,Calm,Calm,-,N/A,,Scattered Clouds,0,2013-09-07 11:51:00
7:51 AM,79.0,73.9,84,29.97,10.0,Calm,Calm,-,N/A,,Clear,0,2013-09-07 12:51:00
8:51 AM,82.0,73.9,76,29.98,10.0,Calm,Calm,-,N/A,,Scattered Clouds,0,2013-09-07 13:51:00
9:14 AM,82.4,73.4,74,30.04,10.0,Variable,3.5,-,N/A,,Mostly Cloudy,0,2013-09-07 14:14:00
9:21 AM,82.4,73.4,74,30.04,10.0,Calm,Calm,-,N/A,,Mostly Cloudy,0,2013-09-07 14:21:00
9:39 AM,82.4,73.4,74,30.05,10.0,ESE,4.6,-,N/A,,Mostly Cloudy,110,2013-09-07 14:39:00
9:51 AM,84.0,73.9,72,29.99,10.0,Variable,3.5,-,N/A,,Mostly Cloudy,0,2013-09-07 14:51:00
10:51 AM,86.0,72.0,63,30.00,10.0,Calm,Calm,-,N/A,,Mostly Cloudy,0,2013-09-07 15:51:00
11:51 AM,90.0,68.0,48,29.99,10.0,East,8.1,-,N/A,,Scattered Clouds,80,2013-09-07 16:51:00
12:51 PM,93.0,66.9,42,29.97,10.0,East,9.2,-,N/A,,Scattered Clouds,100,2013-09-07 17:51:00
1:51 PM,93.9,66.9,41,29.94,10.0,Variable,3.5,-,N/A,,Scattered Clouds,0,2013-09-07 18:51:00
2:51 PM,96.1,66.0,37,29.90,10.0,SSE,5.8,-,N/A,,Mostly Cloudy,160,2013-09-07 19:51:00
3:51 PM,98.1,64.9,34,29.87,10.0,ESE,10.4,17.3,N/A,,Scattered Clouds,110,2013-09-07 20:51:00
4:51 PM,93.0,70.0,47,29.86,10.0,SE,17.3,-,N/A,,Scattered Clouds,140,2013-09-07 21:51:00
5:51 PM,93.0,68.0,44,29.86,10.0,ESE,16.1,25.3,N/A,,Scattered Clouds,120,2013-09-07 22:51:00
6:51 PM,90.0,68.0,48,29.88,10.0,ESE,15.0,-,N/A,,Scattered Clouds,110,2013-09-07 23:51:00
7:51 PM,84.9,68.0,57,29.91,10.0,East,15.0,-,N/A,,Scattered Clouds,90,2013-09-08 00:51:00
8:51 PM,82.9,69.1,63,29.91,10.0,East,9.2,-,N/A,,Scattered Clouds,100,2013-09-08 01:51:00
9:51 PM,81.0,72.0,74,29.92,10.0,ESE,9.2,-,N/A,,Scattered Clouds,110,2013-09-08 02:51:00
10:51 PM,80.1,73.0,79,29.92,10.0,SE,8.1,-,N/A,,Mostly Cloudy,130,2013-09-08 03:51:00
11:37 PM,80.6,73.4,79,29.98,10.0,SE,10.4,-,N/A,,Mostly Cloudy,130,2013-09-08 04:37:00
11:51 PM,80.1,73.0,79,29.93,10.0,SE,8.1,-,N/A,,Mostly Cloudy,130,2013-09-08 04:51:00